{"data":{"norad_id":39197,"intl_designator":"2013-033A","name":"IRIS","alt_names":[],"object_type":"PAYLOAD","status":"ACTIVE","operator":null,"country":"US","launch_date":"2013-06-28","launch_site_code":"WRAS","launch_vehicle":null,"mission":null,"orbit_class":"UNKNOWN","rcs_meters":1.318,"size_class":null,"mass_kg":null,"dimensions":null,"purposes":["science"],"wikipedia_slug":null,"has_3d_model":false,"image_url":null,"decayed_at":null,"tle_current":{"epoch":"2026-05-25T03:12:47.911968Z","epoch_age_seconds":59990,"freshness":"FRESH","line1":"1 39197U 13033A   26145.13388787  .00000943  00000+0  11421-3 0  9999","line2":"2 39197  97.9346 344.4827 0025340  37.2186 323.0779 14.85830381696959","mean_motion":14.85830381,"eccentricity":0.002534,"inclination_deg":97.9346,"raan_deg":344.4827,"arg_perigee_deg":37.2186,"mean_anomaly_deg":323.0779,"bstar":0.00011421,"rev_number":69695,"period_min":96.9155038431,"perigee_km":593.27023733139,"apogee_km":628.6910856398,"semimajor_km":6989.1176614856,"source":"CELESTRAK","updated_at":"2026-05-25T13:38:24.641474Z"}}}